Total_Precipitation_Accumulation
1.67 1.63 1.56 1.44 1.30 1.16 1.04 1.00 0.89 0.79 0.71 0.62 0.52 0.49 0.46 0.43 0.40 0.40 0.42 0.46 0.60 0.86 1.13 1.23 1.30 1.30 1.26 1.21 1.11 1.03 0.92 0.84 0.78 0.74 0.72 0.74 0.74 0.73 0.72 0.71 0.70 0.71 0.74
1.87 1.77 1.68 1.59 1.44 1.32 1.21 1.12 1.00 0.97 0.88 0.78 0.65 0.54 0.52 0.51 0.48 0.44 0.41 0.43 0.50 0.62 0.95 1.22 1.39 1.44 1.41 1.46 1.43 1.28 1.14 1.01 0.95 0.90 0.87 0.85 0.83 0.79 0.80 0.81 0.78 0.79 0.83
2.16 2.07 1.91 1.72 1.49 1.38 1.36 1.35 1.31 1.26 1.16 0.96 0.80 0.68 0.60 0.57 0.54 0.47 0.43 0.43 0.44 0.49 0.70 1.02 1.23 1.36 1.40 1.51 1.70 1.53 1.34 1.22 1.16 1.10 1.04 1.00 0.97 0.94 0.94 0.94 0.94 0.97 1.01
2.34 2.26 2.09 1.88 1.72 1.62 1.55 1.50 1.49 1.44 1.32 1.12 0.93 0.85 0.74 0.65 0.59 0.55 0.50 0.48 0.47 0.45 0.53 0.74 0.91 1.07 1.25 1.48 1.78 1.88 1.56 1.37 1.27 1.20 1.14 1.10 1.08 1.06 1.05 1.06 1.08 1.12 1.18
2.42 2.33 2.18 2.01 1.92 1.84 1.72 1.60 1.57 1.53 1.47 1.32 1.14 1.02 0.95 0.86 0.78 0.73 0.67 0.61 0.60 0.59 0.56 0.63 0.71 0.80 0.97 1.18 1.48 1.87 1.86 1.60 1.42 1.32 1.30 1.25 1.22 1.22 1.20 1.19 1.22 1.27 1.36
2.44 2.37 2.27 2.16 2.04 2.00 1.91 1.78 1.65 1.58 1.53 1.53 1.45 1.29 1.17 1.09 0.98 0.89 0.81 0.74 0.73 0.74 0.73 0.71 0.67 0.66 0.76 0.93 1.13 1.46 1.74 1.66 1.52 1.41 1.38 1.37 1.33 1.33 1.35 1.41 1.48 1.56 1.67
2.48 2.41 2.29 2.28 2.19 2.06 1.98 1.94 1.92 1.89 1.79 1.77 1.82 1.70 1.45 1.31 1.22 1.06 0.95 0.86 0.82 0.85 0.85 0.83 0.77 0.70 0.71 0.82 0.98 1.17 1.43 1.65 1.65 1.60 1.52 1.47 1.46 1.52 1.60 1.67 1.74 1.84 1.95
2.58 2.49 2.40 2.28 2.24 2.16 2.05 2.00 1.99 2.08 2.15 2.14 2.12 2.11 1.96 1.76 1.41 1.17 1.08 0.99 0.92 0.96 1.01 0.98 0.92 0.85 0.80 0.82 0.89 1.04 1.22 1.49 1.60 1.72 1.72 1.67 1.69 1.78 1.95 2.12 2.20 2.23 2.29
2.86 2.63 2.57 2.46 2.30 2.21 2.12 2.03 1.90 1.87 2.00 2.18 2.22 2.33 2.17 1.87 1.56 1.35 1.17 1.08 1.02 0.98 0.97 1.01 1.01 0.96 0.91 0.85 0.80 0.89 1.04 1.28 1.53 1.66 1.86 1.96 1.97 2.07 2.28 2.53 2.73 2.81 2.79
3.21 3.04 2.84 2.68 2.55 2.37 2.20 2.15 2.13 2.00 1.96 2.02 2.11 2.08 1.99 1.75 1.68 1.59 1.35 1.21 1.13 1.08 1.03 0.99 0.96 0.98 1.03 1.02 0.97 0.97 1.04 1.22 1.56 1.74 1.91 2.13 2.28 2.48 2.73 2.93 3.09 3.20 3.15
3.27 3.17 3.08 2.91 2.73 2.61 2.46 2.35 2.26 2.24 2.18 2.10 2.07 2.00 1.98 1.78 1.57 1.56 1.45 1.29 1.27 1.20 1.14 1.06 0.99 1.00 1.04 1.12 1.08 1.11 1.18 1.23 1.53 1.89 2.15 2.41 2.71 3.00 3.25 3.41 3.49 3.45 3.36
3.47 3.24 3.07 3.00 2.87 2.78 2.68 2.59 2.51 2.43 2.35 2.22 2.15 2.10 2.09 2.05 1.80 1.67 1.54 1.34 1.33 1.26 1.23 1.20 1.14 1.09 1.10 1.18 1.22 1.31 1.25 1.26 1.42 1.81 2.31 2.61 2.74 2.91 3.13 3.33 3.50 3.61 3.61
3.31 3.30 3.12 3.03 2.96 2.78 2.70 2.65 2.60 2.48 2.45 2.35 2.27 2.21 2.14 2.00 1.90 1.92 1.91 1.71 1.57 1.38 1.33 1.32 1.25 1.20 1.17 1.21 1.28 1.44 1.37 1.40 1.46 1.58 1.96 2.46 2.55 2.45 2.49 2.71 3.04 3.33 3.43
3.04 3.11 3.15 3.01 2.94 2.83 2.66 2.56 2.52 2.42 2.38 2.36 2.26 2.20 2.17 2.08 2.01 2.05 2.10 2.15 2.07 1.76 1.52 1.36 1.28 1.35 1.38 1.36 1.41 1.48 1.30 1.40 1.41 1.47 1.59 1.86 2.02 1.93 1.88 2.01 2.32 2.63 2.85
2.91 2.93 2.98 2.91 2.83 2.75 2.63 2.52 2.42 2.33 2.26 2.22 2.16 2.11 2.06 2.00 2.03 2.01 2.05 2.20 2.42 2.27 1.80 1.40 1.29 1.31 1.40 1.44 1.52 1.40 1.25 1.39 1.42 1.44 1.47 1.46 1.58 1.70 1.68 1.68 1.79 1.92 2.09
2.55 2.64 2.74 2.73 2.70 2.65 2.57 2.44 2.30 2.24 2.22 2.10 2.05 2.03 1.95 1.85 1.91 2.01 2.06 2.08 2.21 2.33 2.03 1.45 1.25 1.20 1.30 1.35 1.46 1.33 1.23 1.42 1.38 1.34 1.33 1.33 1.38 1.53 1.66 1.66 1.62 1.64 1.69
2.21 2.28 2.29 2.35 2.39 2.42 2.42 2.34 2.18 2.11 2.12 2.04 1.99 2.00 1.94 1.84 1.84 1.86 1.91 1.94 1.97 2.07 2.01 1.50 1.29 1.26 1.31 1.32 1.35 1.29 1.23 1.24 1.21 1.35 1.33 1.30 1.29 1.37 1.52 1.63 1.62 1.55 1.55
2.12 2.11 2.10 2.11 2.10 2.08 2.13 2.13 2.01 1.93 1.92 1.87 1.82 1.86 1.87 1.82 1.83 1.78 1.79 1.78 1.72 1.68 1.74 1.56 1.28 1.26 1.26 1.24 1.32 1.35 1.28 1.19 1.10 1.25 1.28 1.28 1.29 1.30 1.35 1.48 1.60 1.62 1.56
2.14 2.05 2.01 2.00 1.97 1.95 1.95 1.94 1.93 1.84 1.78 1.73 1.67 1.68 1.70 1.75 1.74 1.65 1.61 1.60 1.57 1.57 1.62 1.62 1.41 1.27 1.28 1.27 1.34 1.39 1.34 1.29 1.18 1.23 1.32 1.33 1.37 1.37 1.40 1.44 1.53 1.61 1.63
2.17 2.05 1.91 1.85 1.81 1.84 1.89 1.90 1.95 1.92 1.80 1.72 1.68 1.64 1.58 1.58 1.54 1.50 1.51 1.52 1.61 1.72 1.75 1.78 1.66 1.46 1.39 1.37 1.46 1.48 1.46 1.36 1.32 1.26 1.41 1.48 1.52 1.53 1.51 1.52 1.51 1.56 1.60
2.04 2.05 1.96 1.90 1.83 1.81 1.86 1.90 1.93 1.93 1.86 1.80 1.69 1.60 1.53 1.54 1.53 1.50 1.54 1.57 1.67 1.86 1.97 2.03 1.91 1.73 1.60 1.55 1.51 1.45 1.51 1.50 1.48 1.39 1.40 1.42 1.47 1.52 1.55 1.61 1.63 1.61 1.68
1.85 1.96 1.99 1.96 1.92 1.88 2.09 2.08 1.96 1.90 1.89 1.84 1.76 1.61 1.53 1.54 1.50 1.54 1.59 1.67 1.84 2.04 2.18 2.20 2.07 1.86 1.57 1.43 1.44 1.59 1.76 1.97 1.91 1.45 1.42 1.47 1.44 1.57 1.55 1.57 1.76 1.77 1.75
1.75 1.86 1.93 1.98 2.00 2.05 2.13 1.97 2.01 1.89 1.83 1.79 1.71 1.65 1.56 1.47 1.48 1.34 1.45 1.60 1.68 1.82 1.92 1.92 1.87 1.53 1.39 1.36 1.63 1.94 1.97 2.01 1.78 1.47 1.65 1.81 1.62 1.61 1.51 1.60 1.86 1.73 1.68
1.67 1.78 1.86 1.84 1.84 1.93 2.00 1.86 1.86 1.77 1.79 1.76 1.66 1.59 1.57 1.53 1.50 1.54 1.59 1.66 1.49 1.39 1.40 1.37 1.39 1.35 1.37 1.53 1.88 2.26 2.38 2.38 2.10 1.86 1.89 2.06 1.72 1.56 1.47 1.54 1.79 1.70 1.60
1.64 1.64 1.68 1.70 1.69 1.75 1.82 1.75 1.72 1.61 1.67 1.62 1.55 1.50 1.50 1.45 1.65 1.84 1.86 1.85 1.61 1.36 1.35 1.47 1.58 1.60 1.69 1.83 1.99 2.40 2.74 2.90 2.55 1.95 1.75 1.89 1.75 1.63 1.61 1.56 1.64 1.76 1.64
1.62 1.57 1.53 1.51 1.51 1.54 1.64 1.60 1.59 1.51 1.56 1.51 1.48 1.47 1.57 1.54 1.71 1.85 1.77 1.86 1.78 1.48 1.38 1.44 1.51 1.55 1.50 1.61 1.90 2.07 2.62 3.23 2.92 2.30 1.63 1.76 1.81 1.96 2.27 1.76 1.51 1.57 1.62